Showing default

GEO-KOMPSAT-2B, 45246

Orbit data source: Space-Track

GEO-KOMPSAT-2B, 45246 is a payload satellite owned by KARI (KR) in GEO that was launched on Tue, 18 Feb 2020 UTC via an ARIANE 5ECA+ launch vehicle from the French Guiana (FRGUI). Payload-class satellites include a variety of spacecraft equipped with specific instruments for various scientific and technological missions. These include communications satellites like Starlink; space stations such as the ISS; scientific satellites like the Hubble; Earth observation satellites from companies like Planet Labs, Umbra, and HawkEye 360; GPS; miniature CubeSats for education and research; and military/defense satellites.

Not visible in the next 10 days
Identifier
45246, 2020-013B
Orbit
GEO
Last TLE update
11 hours ago
Origin
Manufacturer
KARI
Mission
Operational Civil Weather
Bus & Motor
GK2, S400?
Mass
3,379 kg wet, ~2,500 kg dry
Launch date (UTC)
2020-02-18 (5 years ago)
Launch vehicle
ARIANE 5ECA+
Launch site
French Guiana (FRGUI)
Object type
Payload
Rocket body
Debris
Shape & HBR
Box + 1 Pan, Unknown HBR
Radar Cross Section
15.287 m², Large (>1 m²)

Expand to show TLE details & history

TLE from 11 hours ago
0 GEO-KOMPSAT-2B
1 45246U 20013B   25199.71495880 -.00000338  00000-0  00000-0 0  9990
2 45246   0.0482 248.1104 0000585 329.3012 104.9734  1.00273385 19934
Epoch: 2025-07-18T17:09Z
TLE epoch observation values (Epoch: 2025-07-18T17:09:32.44Z)
Latitude
0.0219°
Longitude
128.2491°
Altitude
35,786.265 km
Speed
3.075 km/s
True Right ascension
21h 29m 35s
True Declination
0° 01' 19"
Sunlit
Object was in daylight at epoch
Visualization orbit readout
Latitude
-0.01399°
Longitude
-62.56927°
Altitude
35,785.532 km
Speed
3.075 km/s
Apparent Right ascension
08h 26m 23s
Apparent Declination
-5° 09' 10"
Sunlit
Object is in daylight
Visualization observer readout
Local Sidereal Time
17:12:52
Azimuth
295.532° NW
Elevation
-34.405°
Doppler factor
1
Orbital elements
Apogee altitude
35,789.683 km
Perigee altitude
35,784.75 km
Semi-major axis
42,165.354 km
Eccentricity
0.00006
Inclination
0.0482°
RAAN
248.1104°
Arg. of periapsis
329.3012°
True anomaly
104.97988°
Mean anomaly
104.9734°
Eccentric anomaly
104.97664°
Mean motion
0.25067 °/min
Orbital period
1,436.13 mins
BSTAR
0
Loading maneuver chart data...
Loading SW <> Apogee altitude chart data...
Loading historical data...
Loading historical data...
Loading historical data...
Loading historical data...
Loading historical data...
Loading historical data...
Loading historical data...
Other satellites on launch #13 in the year 2020 (2020-02-18 UTC)
|